Simultaneous Nadir Overpasses (SNOs) Predictions

Prediction of SNOs near equator between AQUA and NPP Satellite Orbit:

Table of predicted SNOs near equator for the next 14.0 days since TLE Epoch: 11/2/2013
Index Date (AQUA) Time (AQUA) AQUA Lat,Lon Date (NPP) Time (NPP) NPP Lat,Lon Distance(km) Time Diff (sec)
1 11/02/2013 15:37:54 10.11, -32.06 11/02/2013 15:28:11 10.11, -32.06 0.30 583
2 11/02/2013 16:24:42 -0.79, 137.60 11/02/2013 16:16:12 -0.73, 137.39 23.75 510
3 11/02/2013 17:12:57 -3.81, -53.81 11/02/2013 17:05:43 -3.88, -54.28 53.24 434
4 11/02/2013 18:01:04 8.35, 114.83 11/02/2013 17:55:05 8.49, 114.10 81.90 359
5 11/05/2013 07:53:04 4.89, 84.92 11/05/2013 07:43:38 4.89, 84.90 1.29 566
6 11/05/2013 08:41:00 0.32,-106.32 11/05/2013 08:32:49 0.37,-106.58 29.98 491
7 11/05/2013 09:29:15 -4.91, 62.28 11/05/2013 09:22:19 -5.04, 61.76 59.27 416
8 11/05/2013 10:17:22 9.46,-129.08 11/05/2013 10:11:42 9.60,-129.87 87.88 340
9 11/07/2013 23:27:04 -29.98, 27.37 11/07/2013 23:17:04 -30.70, 27.08 84.45 600
10 11/08/2013 00:09:07 2.99,-158.83 11/08/2013 00:00:00 2.98,-158.88 6.79 547
11 11/08/2013 00:57:15 1.49, 9.79 11/08/2013 00:49:23 1.59, 9.47 36.62 472
12 11/08/2013 01:45:29 -6.15, 178.40 11/08/2013 01:38:53 -6.25, 177.81 65.64 396
13 11/08/2013 02:33:37 10.63, -12.98 11/08/2013 02:28:16 10.81, -13.82 93.88 321
14 11/10/2013 15:40:20 -18.05, 146.12 11/10/2013 15:30:23 -18.05, 146.12 0.27 597
15 11/10/2013 16:25:22 1.82, -42.72 11/10/2013 16:16:35 1.78, -42.83 13.73 527
16 11/10/2013 17:13:28 2.79, 125.92 11/10/2013 17:05:57 2.84, 125.53 43.34 451
17 11/10/2013 18:01:44 -7.32, -65.49 11/10/2013 17:55:28 -7.44, -66.13 72.25 376
18 11/13/2013 07:55:16 -12.17, -96.70 11/13/2013 07:45:38 -12.17, -96.71 0.55 578
19 11/13/2013 08:41:34 0.52, 73.42 11/13/2013 08:33:08 0.47, 73.24 20.77 506
20 11/13/2013 09:29:41 4.02,-117.95 11/13/2013 09:22:31 4.09,-118.40 50.45 430
21 11/13/2013 10:17:56 -8.61, 50.65 11/13/2013 10:12:01 -8.75, 49.94 79.02 355
22 11/16/2013 00:09:45 -4.71, 20.77 11/16/2013 00:00:26 -4.71, 20.77 0.13 559
23 11/16/2013 00:57:45 -0.78,-170.44 11/16/2013 00:49:41 -0.82,-170.69 28.27 484
